Find Starlink 2748

NORAD ID: 48694 Int'l Des: 2021-044 Owner: SPXS Country: US Constellation: starlink operational
LEOCIRCULAR

リアルタイム位置

3D地球を読み込み中...

Starlink 2748について

説明を読み込み中...

次回通過

Passes for default location (London). Set your location on the main map for personalized predictions.

高度履歴

Loading altitude history...

軌道要素

1 48694U 21044BJ 26106.67900401 .00001763 00000-0 68562-4 0 9992
2 48694 53.1611 261.9655 0000840 92.4500 267.6598 15.31704055270133
Epoch: Apr 16, 2026 • Age: 23 hours

現在のステータス

高度 480.2 km
速度 7.63 km/s
衛星直下点 -30.00°S, 29.7°E
打ち上げ日 May 26, 2021
運用期間 4.8 years
タイプ internet

技術仕様

分類 Payload
質量 260.00 kg
乾燥質量 248.00 kg
総質量 260.00 kg
長さ 0.20 m
直径 2.80 m
スパン 9.00 m
形状 Box + pan
製造者 SPXS
バスタイプ Starlink
フェーズステータス In Orbit
所有者/国 SPXS/US

Most Searched